Location: Table Mountain
(47.2500°N, 120.5778°W)
Time: 15:34:33
(UTC-07:00)

OTV 5 (USA 277) - Pass Details

Date: 12 October 2017
Orbit: 404 x 417 km, 43.0° (Epoch: 07 September)

Event Time Altitude Azimuth Distance (km) Brightness Sun altitude
Rises 19:44:08 0° 239° (WSW) 2,345 ? -15.1°
Reaches altitude 10° 19:46:23 10° 228° (SW) 1,484 ? -15.5°
Maximum altitude 19:49:21 29° 166° (SSE) 781 ? -16.0°
Enters shadow 19:49:55 28° 146° (SE) 817 ? -16.1°
